Location: Dumbr?vi?a
(45.8833°N, 22.7000°E)
Time: 13:43:40
(UTC+00:00)

Cosmos 2278 Rocket - Pass Details

Date: 03 March 2021
Orbit: 841 x 845 km, 71.0° (Epoch: 15 April)

Event Time Altitude Azimuth Distance (km) Brightness Sun altitude
Rises 18:41:25 0° 336° (NNW) 3,415 5.9 -25.4°
Reaches altitude 10° 18:43:58 10° 342° (NNW) 2,475 5.0 -25.8°
Enters shadow 18:48:45 47° 33° (NNE) 1,114 2.6 -26.6°
